This demonstration page uses our WeatherBlox Daily Observations layout. Learn more.

Left ArrowRight Arrow

Hourly Observations for February 14, 2019

Temp ( °F °C ) Dew Point ( °F °C ) Humidity (%) Winds ( mph kmh ) Pressure ( in mb ) Visibility ( mi km ) Precip ( " mm )
12:15 am 00:15 Clear 36 2 25 -4 65 65 WNW 9 15 29.99 1016 10 16.0934 0 0
12:35 am 00:35 Clear 36 2 25 -4 65 65 WNW 12 19 29.99 1016 10 16.0934 0 0
12:55 am 00:55 Clear 36 2 25 -4 65 65 WNW 10 17 30 1016 10 16.0934 0 0
1:15 am 01:15 Clear 36 2 25 -4 65 65 NW 9 15 30 1016 10 16.0934 0 0
1:35 am 01:35 Clear 36 2 25 -4 65 65 NW 13 20 30.01 1016 10 16.0934 0 0
1:55 am 01:55 Clear 34 1 25 -4 70 70 NW 10 17 30.03 1017 10 16.0934 0 0
2:15 am 02:15 Clear 36 2 25 -4 65 65 WNW 10 17 30.04 1017 10 16.0934 0 0
2:35 am 02:35 Clear 36 2 23 -5 60 60 W 5 7 30.06 1018 10 16.0934 0 0
2:55 am 02:55 Clear 34 1 23 -5 65 65 W 3 6 30.06 1018 10 16.0934 0 0
3:15 am 03:15 Clear 34 1 23 -5 65 65 SSW 5 7 30.07 1018 10 16.0934 0 0
3:35 am 03:35 Clear 34 1 23 -5 65 65 SW 7 11 30.06 1018 10 16.0934 0 0
3:55 am 03:55 Clear 34 1 23 -5 65 65 SW 5 7 30.06 1018 10 16.0934 0 0
4:15 am 04:15 Clear 32 0 23 -5 69 69 W 6 9 30.07 1018 10 16.0934 0 0
4:35 am 04:35 Clear 32 0 23 -5 69 69 SSW 3 6 30.07 1018 10 16.0934 0 0
4:55 am 04:55 Clear 34 1 23 -5 65 65 Calm 30.08 1019 10 16.0934 0 0
5:15 am 05:15 Clear 32 0 23 -5 69 69 Calm 30.08 1019 10 16.0934 0 0
5:35 am 05:35 Clear 30 -1 23 -5 75 75 Calm 30.09 1019 10 16.0934 0 0
5:55 am 05:55 Clear 30 -1 25 -4 80 80 Calm 30.1 1019 10 16.0934 0 0
6:15 am 06:15 Clear 30 -1 27 -3 86 86 Calm 30.12 1020 10 16.0934 0 0
6:35 am 06:35 Clear 30 -1 27 -3 86 86 Calm 30.12 1020 10 16.0934 0 0
6:55 am 06:55 Clear 30 -1 27 -3 86 86 Calm 30.12 1020 10 16.0934 0 0
7:15 am 07:15 Sunny 28 -2 27 -3 93 93 Calm 30.13 1020 10 16.0934 0 0
7:35 am 07:35 Sunny 30 -1 27 -3 86 86 Calm 30.12 1020 10 16.0934 0 0
7:55 am 07:55 Sunny 32 0 27 -3 80 80 Calm 30.13 1020 10 16.0934 0 0
8:15 am 08:15 Sunny 32 0 28 -2 87 87 Calm 30.14 1021 10 16.0934 0 0
8:35 am 08:35 Sunny 36 2 28 -2 75 75 Calm 30.14 1021 10 16.0934 0 0
8:55 am 08:55 Sunny 37 3 28 -2 70 70 Calm 30.15 1021 10 16.0934 0 0
9:15 am 09:15 Sunny 39 4 28 -2 65 65 Calm 30.14 1021 10 16.0934 0 0
9:35 am 09:35 Sunny 41 5 27 -3 57 57 Calm 30.13 1020 10 16.0934 0 0
9:55 am 09:55 Sunny 41 5 25 -4 53 53 Calm 30.13 1020 10 16.0934 0 0
10:15 am 10:15 Sunny 43 6 27 -3 53 53 Calm 30.12 1020 10 16.0934 0 0
10:35 am 10:35 Partly Cloudy 43 6 27 -3 53 53 Calm 30.14 1021 10 16.0934 0 0
10:55 am 10:55 Cloudy 43 6 28 -2 57 57 Calm 30.13 1020 10 16.0934 0 0
11:15 am 11:15 Partly Cloudy 43 6 28 -2 57 57 Calm 30.13 1020 10 16.0934 0 0
11:35 am 11:35 Sunny 43 6 28 -2 57 57 SW 3 6 30.13 1020 10 16.0934 0 0
11:55 am 11:55 Sunny 43 6 28 -2 57 57 SW 5 7 30.13 1020 10 16.0934 0 0
12:15 pm 12:15 Sunny 45 7 28 -2 53 53 WSW 3 6 30.12 1020 10 16.0934 0 0
12:35 pm 12:35 Sunny 45 7 30 -1 57 57 S 3 6 30.11 1020 10 16.0934 0 0
12:55 pm 12:55 Sunny 45 7 30 -1 57 57 SSW 5 7 30.1 1019 10 16.0934 0 0
1:15 pm 13:15 Sunny 46 8 28 -2 50 50 WSW 5 7 30.09 1019 10 16.0934 0 0
1:35 pm 13:35 Sunny 46 8 28 -2 50 50 SSW 5 7 30.09 1019 10 16.0934 0 0
1:55 pm 13:55 Sunny 46 8 28 -2 50 50 S 6 9 30.08 1019 10 16.0934 0 0
2:15 pm 14:15 Sunny 48 9 28 -2 46 46 SSW 5 7 30.07 1018 10 16.0934 0 0
2:35 pm 14:35 Sunny 50 10 28 -2 43 43 SSE 5 7 30.05 1017 10 16.0934 0 0
2:55 pm 14:55 Sunny 50 10 28 -2 43 43 S 8 13 30.04 1017 10 16.0934 0 0
3:15 pm 15:15 Sunny 50 10 28 -2 43 43 S 7 11 30.04 1017 10 16.0934 0 0
3:35 pm 15:35 Sunny 50 10 28 -2 43 43 S 6 9 30.04 1017 10 16.0934 0 0
3:55 pm 15:55 Sunny 50 10 28 -2 43 43 S 7 11 30.03 1017 10 16.0934 0 0
4:15 pm 16:15 Sunny 50 10 28 -2 43 43 S 8 13 30.01 1016 10 16.0934 0 0
4:35 pm 16:35 Sunny 50 10 30 -1 47 47 S 7 11 30 1016 10 16.0934 0 0
4:55 pm 16:55 Sunny 50 10 30 -1 47 47 Calm 30 1016 10 16.0934 0 0
5:15 pm 17:15 Sunny 50 10 30 -1 47 47 Calm 30 1016 10 16.0934 0 0
5:35 pm 17:35 Sunny 50 10 30 -1 47 47 SSE 3 6 29.99 1015 10 16.0934 0 0
5:55 pm 17:55 Clear 48 9 30 -1 50 50 S 5 7 29.99 1015 10 16.0934 0 0
6:15 pm 18:15 Clear 48 9 30 -1 50 50 S 8 13 29.98 1015 10 16.0934 0 0
6:35 pm 18:35 Clear 50 10 28 -2 43 43 S 8 13 29.98 1015 10 16.0934 0 0
7:15 pm 19:15 Clear 48 9 28 -2 46 46 SSE 5 7 29.98 1015 10 16.0934 0 0
7:35 pm 19:35 Clear 48 9 28 -2 46 46 SSE 8 13 29.97 1015 10 16.0934 0 0
7:55 pm 19:55 Clear 48 9 30 -1 50 50 SSE 6 9 29.97 1015 10 16.0934 0 0
8:15 pm 20:15 Clear 48 9 30 -1 50 50 SE 7 11 29.96 1014 10 16.0934 0 0
8:35 pm 20:35 Clear 48 9 30 -1 50 50 SE 8 13 29.95 1014 10 16.0934 0 0
8:55 pm 20:55 Clear 46 8 30 -1 53 53 SSE 6 9 29.94 1014 10 16.0934 0 0
9:15 pm 21:15 Clear 48 9 32 0 54 54 SSE 6 9 29.94 1014 10 16.0934 0 0
9:35 pm 21:35 Clear 46 8 32 0 57 57 SSE 5 7 29.94 1014 10 16.0934 0 0
9:55 pm 21:55 Clear 46 8 32 0 57 57 SSE 3 6 29.93 1014 10 16.0934 0 0
10:15 pm 22:15 Clear 45 7 32 0 61 61 S 7 11 29.93 1014 10 16.0934 0 0
10:35 pm 22:35 Clear 45 7 32 0 61 61 S 7 11 29.91 1013 10 16.0934 0 0
10:55 pm 22:55 Clear 45 7 32 0 61 61 S 7 11 29.9 1013 10 16.0934 0 0
11:15 pm 23:15 Partly Cloudy 45 7 32 0 61 61 SSW 5 7 29.89 1012 10 16.0934 0 0
11:35 pm 23:35 Mostly Cloudy 45 7 32 0 61 61 S 5 7 29.88 1012 10 16.0934 0 0
11:55 pm 23:55 Mostly Cloudy 43 6 34 1 71 71 S 7 11 29.88 1012 10 16.0934 0 0

Powered by AerisWeather